Location: Albuquerque Trailhead
(34.7934°N, 106.3736°W)
Time: 00:45:05
(UTC+00:00)

SL-4 R/B - Pass Details

Date: 20 June 2021
Orbit: 428 x 662 km, 51.6° (Epoch: 01 August)

Event Time Altitude Azimuth Distance (km) Brightness Sun altitude
Rises 04:17:08 0° 216° (SW) 2,843 5.5 -19.2°
Reaches altitude 10° 04:19:31 10° 213° (SSW) 1,906 4.6 -19.5°
Enters shadow 04:20:59 20° 207° (SSW) 1,355 3.8 -19.7°
Exits shadow 04:24:07 55° 112° (ESE) 668 2.1 -20.1°
Drops below altitude 10° 04:27:45 10° 56° (NE) 1,770 4.5 -20.6°
Sets 04:29:53 0° 52° (NE) 2,619 5.5 -20.9°
